G8YN6G Weather Reports


time (UTC)temp
C
wind
direction
speed
KPH
gust
KPH
rain 1hr
cm
rain 24hr
cm
rain mn
cm
humidity
%
barometer
mb
20260504045212 8 156 3.2 4.8 0.00 0.10 0.00 91 1009.8
20260504043314 8 157 3.2 8.0 0.00 0.10 0.00 90 1010.5
20260504042412 8 155 3.2 6.4 0.00 0.10 0.00 91 1010.2
20260504040415 8 194 3.2 6.4 0.00 0.10 0.00 92 1010.5
20260504035424 7 112 3.2 4.8 0.00 0.10 0.10 91 1010.5
20260504034521 7 116 1.6 3.2 0.00 0.10 0.10 91 1010.5
20260504033523 7 135 3.2 6.4 0.00 0.10 0.10 91 1010.5
20260504031621 7 154 8.0 12.9 0.03 0.10 0.10 90 1010.5
20260504030623 7 166 3.2 6.4 0.03 0.10 0.10 90 1010.5
20260504025621 7 156 6.4 8.0 0.03 0.10 0.10 89 1010.5
20260504024622 8 151 4.8 6.4 0.05 0.10 0.10 90 1010.5
20260504023521 7 158 3.2 8.0 0.05 0.10 0.10 88 1010.9
20260504022521 8 148 1.6 4.8 0.03 0.08 0.08 87 1010.9
20260504021521 8 177 3.2 4.8 0.05 0.08 0.08 87 1010.9
20260504020522 8 163 4.8 8.0 0.05 0.08 0.08 86 1011.0
20260504015524 7 193 3.2 4.8 0.05 0.08 0.08 84 1011.5
20260504014522 8 202 4.8 6.4 0.03 0.05 0.05 83 1011.2
20260504011622 8 235 6.4 14.5 0.03 0.03 0.03 76 1011.5
20260504010622 8 219 1.6 6.4 0.03 0.03 0.03 71 1011.5
20260504004721 10 214 6.4 11.3 0.03 0.03 0.03 62 1011.6
20260504003723 10 182 8.0 14.5 0.00 0.00 0.00 60 1011.2
20260504001723 10 179 6.4 11.3 0.00 0.00 0.00 55 1010.9
20260503235721 11 156 0.0 6.4 0.00 0.00 0.00 54 1010.5
20260503234721 10 143 1.6 3.2 0.00 0.00 0.00 53 1010.2
20260503233723 10 157 1.6 4.8 0.00 0.00 0.00 53 1010.4
20260503232722 11 157 3.2 4.8 0.00 0.00 0.00 54 1010.5
20260503231722 10 164 4.8 6.4 0.00 0.00 0.00 53 1010.5
20260503230722 10 267 0.0 0.0 0.00 0.00 0.00 54 1011.2
20260503225722 10 267 0.0 0.0 0.00 0.00 0.00 54 1011.2
20260503224722 10 253 3.2 4.8 0.00 0.00 0.00 51 1011.5
20260503223722 10 293 4.8 8.0 0.00 0.00 0.00 47 1011.5
20260503222721 11 197 6.4 9.7 0.00 0.00 0.00 48 1011.2
20260503221725 11 201 4.8 9.7 0.00 0.00 0.00 48 1011.2
20260503220822 11 289 3.2 6.4 0.00 0.00 0.00 45 1011.5
20260503215821 11 218 0.0 0.0 0.00 0.00 0.00 46 1011.2
20260503214823 11 218 0.0 0.0 0.00 0.00 0.00 46 1011.2
20260503214724 12 221 0.0 0.0 0.00 0.00 0.00 47 1011.2
20260503213821 11 185 1.6 3.2 0.00 0.00 0.00 46 1011.2
20260503212823 11 285 3.2 6.4 0.00 0.00 0.00 46 1011.2
20260503211823 11 289 1.6 3.2 0.00 0.00 0.00 42 1011.2
20260503210823 11 287 1.6 3.2 0.00 0.00 0.00 42 1011.2
20260503205823 11 309 0.0 0.0 0.00 0.00 0.00 42 1011.5
20260503204824 12 300 3.2 6.4 0.00 0.00 0.00 43 1011.5
20260503203821 12 267 1.6 4.8 0.00 0.00 0.00 46 1011.5
20260503201823 11 310 4.8 8.0 0.00 0.00 0.00 45 1011.9
20260503200922 11 300 6.4 8.0 0.00 0.00 0.00 46 1012.0
20260503195922 11 338 1.6 4.8 0.00 0.00 0.00 47 1012.2
20260503194922 10 242 3.2 6.4 0.00 0.00 0.00 45 1012.2
20260503193923 11 294 6.4 9.7 0.00 0.00 0.00 43 1012.6
20260503193021 11 286 4.8 9.7 0.00 0.00 0.00 42 1012.9
20260503192022 11 287 0.0 1.6 0.00 0.00 0.00 42 1012.6
20260503191024 11 292 3.2 6.4 0.00 0.00 0.00 43 1012.9
20260503190022 10 269 4.8 11.3 0.00 0.00 0.00 41 1012.9
20260503185023 11 282 0.0 3.2 0.00 0.00 0.00 41 1012.9
20260503184024 11 283 3.2 6.4 0.00 0.00 0.00 42 1013.2
20260503183024 11 270 6.4 16.1 0.00 0.00 0.00 42 1013.2
20260503180023 11 330 3.2 9.7 0.00 0.00 0.00 43 1013.5
20260503175022 10 281 4.8 9.7 0.00 0.00 0.00 40 1013.6
20260503174024 11 255 0.0 3.2 0.00 0.00 0.00 40 1013.2
20260503173121 11 292 1.6 4.8 0.00 0.00 0.00 38 1013.2
20260503172124 11 293 1.6 6.4 0.00 0.00 0.00 39 1013.6
20260503170222 10 260 6.4 11.3 0.00 0.00 0.00 40 1014.0
20260503150524 9 197 1.6 4.8 0.00 0.05 0.00 43 1015.6
20260503131024 6 211 4.8 6.4 0.00 0.05 0.00 64 1015.3
20260503120123 5 225 3.2 6.4 0.00 0.05 0.00 87 1015.3
20260503080722 3 244 1.6 3.2 0.00 0.05 0.00 81 1014.6
20260503070723 3 257 0.0 4.8 0.00 0.05 0.00 76 1014.3
20260503054923 3 244 4.8 8.0 0.00 0.05 0.00 80 1014.3